| time (UTC) | temp C | wind direction | speed KPH | gust KPH | rain 1hr cm | rain 24hr cm | rain mn cm | humidity % | barometer mb |
| 20260502195707 | 15 | 312 | 0.0 | 0.0 | 0.00 | 0.48 | 0.48 | 96 | 1013.3 |
| 20260502195205 | 15 | 312 | 0.0 | 0.0 | 0.00 | 0.48 | 0.48 | 96 | 1013.1 |
| 20260502194205 | 15 | 312 | 0.0 | 3.2 | 0.00 | 0.48 | 0.48 | 96 | 1013.2 |
| 20260502193706 | 15 | 312 | 0.0 | 3.2 | 0.00 | 0.48 | 0.48 | 96 | 1013.1 |
| 20260502193205 | 15 | 312 | 0.0 | 3.2 | 0.00 | 0.48 | 0.48 | 96 | 1013.4 |
| 20260502192706 | 15 | 312 | 0.0 | 9.7 | 0.00 | 0.48 | 0.48 | 96 | 1013.5 |
| 20260502192205 | 15 | 312 | 0.0 | 9.7 | 0.00 | 0.48 | 0.48 | 96 | 1013.4 |
| 20260502190233 | 16 | 307 | 0.0 | 1.6 | 0.03 | 0.48 | 0.48 | 96 | 1013.2 |
| 20260502185705 | 16 | 285 | 0.0 | 8.0 | 0.03 | 0.48 | 0.48 | 96 | 1013.0 |
| 20260502185206 | 16 | 285 | 0.0 | 8.0 | 0.03 | 0.48 | 0.48 | 96 | 1013.0 |
| 20260502184705 | 16 | 285 | 1.6 | 8.0 | 0.15 | 0.48 | 0.48 | 95 | 1013.0 |
| 20260502184205 | 16 | 289 | 1.6 | 3.2 | 0.18 | 0.48 | 0.48 | 95 | 1012.9 |
| 20260502182706 | 16 | 139 | 1.6 | 4.8 | 0.23 | 0.48 | 0.48 | 95 | 1012.7 |
| 20260502181705 | 16 | 128 | 0.0 | 4.8 | 0.23 | 0.48 | 0.48 | 95 | 1012.7 |
| 20260502181207 | 16 | 110 | 0.0 | 4.8 | 0.23 | 0.48 | 0.48 | 94 | 1012.7 |
| 20260502180705 | 16 | 103 | 0.0 | 11.3 | 0.23 | 0.48 | 0.48 | 93 | 1012.7 |
| 20260502180205 | 16 | 262 | 1.6 | 11.3 | 0.20 | 0.46 | 0.46 | 92 | 1013.1 |
| 20260502170205 | 19 | 107 | 0.0 | 3.2 | 0.15 | 0.25 | 0.25 | 80 | 1013.0 |
| 20260502164205 | 21 | 107 | 0.0 | 6.4 | 0.00 | 0.13 | 0.13 | 73 | 1013.4 |
| 20260502163705 | 21 | 107 | 0.0 | 6.4 | 0.00 | 0.13 | 0.13 | 76 | 1013.2 |
| 20260502163206 | 21 | 107 | 0.0 | 11.3 | 0.00 | 0.13 | 0.13 | 76 | 1013.2 |
| 20260502162705 | 21 | 110 | 3.2 | 11.3 | 0.00 | 0.13 | 0.13 | 77 | 1013.4 |
| 20260502162205 | 21 | 116 | 4.8 | 11.3 | 0.00 | 0.13 | 0.13 | 75 | 1013.5 |
| 20260502161705 | 21 | 109 | 4.8 | 9.7 | 0.00 | 0.13 | 0.13 | 73 | 1013.6 |
| 20260502161206 | 21 | 132 | 1.6 | 9.7 | 0.00 | 0.13 | 0.13 | 74 | 1013.7 |
| 20260502160705 | 21 | 77 | 0.0 | 1.6 | 0.00 | 0.13 | 0.13 | 77 | 1013.6 |
| 20260502160205 | 21 | 77 | 0.0 | 0.0 | 0.00 | 0.13 | 0.13 | 80 | 1013.6 |
| 20260502152205 | 21 | 77 | 1.6 | 4.8 | 0.13 | 0.13 | 0.13 | 76 | 1014.0 |
| 20260502151705 | 20 | 77 | 0.0 | 3.2 | 0.13 | 0.13 | 0.13 | 78 | 1014.1 |
| 20260502151205 | 20 | 77 | 0.0 | 3.2 | 0.13 | 0.13 | 0.13 | 82 | 1014.2 |
| 20260502150705 | 20 | 89 | 0.0 | 1.6 | 0.13 | 0.13 | 0.13 | 82 | 1014.3 |
| 20260502150205 | 20 | 2 | 0.0 | 1.6 | 0.13 | 0.13 | 0.13 | 80 | 1014.4 |
| 20260502130706 | 21 | 325 | 1.6 | 11.3 | 0.00 | 0.00 | 0.00 | 66 | 1015.7 |
| 20260502130205 | 21 | 323 | 3.2 | 12.9 | 0.00 | 0.00 | 0.00 | 64 | 1015.7 |
| 20260502123705 | 22 | 314 | 3.2 | 19.3 | 0.00 | 0.00 | 0.00 | 61 | 1015.9 |
| 20260502123205 | 22 | 329 | 6.4 | 19.3 | 0.00 | 0.00 | 0.00 | 61 | 1015.8 |
| 20260502122705 | 22 | 328 | 6.4 | 12.9 | 0.00 | 0.00 | 0.00 | 58 | 1016.0 |
| 20260502122205 | 23 | 323 | 1.6 | 3.2 | 0.00 | 0.00 | 0.00 | 55 | 1016.0 |
| 20260502121705 | 23 | 298 | 0.0 | 1.6 | 0.00 | 0.00 | 0.00 | 53 | 1015.9 |
| 20260502121206 | 24 | 298 | 0.0 | 1.6 | 0.00 | 0.00 | 0.00 | 53 | 1015.8 |
| 20260502120706 | 24 | 297 | 0.0 | 1.6 | 0.00 | 0.00 | 0.00 | 51 | 1015.8 |
| 20260502120205 | 25 | 299 | 0.0 | 1.6 | 0.00 | 0.00 | 0.00 | 52 | 1015.8 |
| 20260502115705 | 24 | 299 | 0.0 | 3.2 | 0.00 | 0.00 | 0.00 | 51 | 1015.9 |
| 20260502115205 | 24 | 19 | 0.0 | 4.8 | 0.00 | 0.00 | 0.00 | 51 | 1015.9 |
| 20260502113705 | 24 | 58 | 0.0 | 3.2 | 0.00 | 0.00 | 0.00 | 48 | 1016.2 |
| 20260502113205 | 24 | 76 | 0.0 | 4.8 | 0.00 | 0.00 | 0.00 | 50 | 1016.2 |
| 20260502112205 | 23 | 56 | 0.0 | 4.8 | 0.00 | 0.00 | 0.00 | 50 | 1016.4 |
| 20260502111706 | 24 | 18 | 0.0 | 4.8 | 0.00 | 0.00 | 0.00 | 50 | 1016.5 |
| 20260502111206 | 24 | 70 | 0.0 | 3.2 | 0.00 | 0.00 | 0.00 | 48 | 1016.6 |
| 20260502110705 | 23 | 340 | 0.0 | 6.4 | 0.00 | 0.00 | 0.00 | 52 | 1016.6 |
| 20260502105705 | 23 | 335 | 1.6 | 6.4 | 0.00 | 0.00 | 0.00 | 51 | 1016.7 |
| 20260502105207 | 23 | 15 | 0.0 | 6.4 | 0.00 | 0.00 | 0.00 | 52 | 1016.7 |
| 20260502104706 | 23 | 66 | 0.0 | 4.8 | 0.00 | 0.00 | 0.00 | 49 | 1016.8 |
| 20260502104205 | 23 | 355 | 0.0 | 4.8 | 0.00 | 0.00 | 0.00 | 51 | 1016.9 |
| 20260502103724 | 23 | 355 | 0.0 | 11.3 | 0.00 | 0.00 | 0.00 | 51 | 1017.0 |
| 20260502103205 | 23 | 354 | 1.6 | 11.3 | 0.00 | 0.00 | 0.00 | 50 | 1017.0 |
| 20260502102206 | 23 | 68 | 1.6 | 6.4 | 0.00 | 0.00 | 0.00 | 48 | 1017.1 |
| 20260502101205 | 23 | 86 | 0.0 | 4.8 | 0.00 | 0.00 | 0.00 | 54 | 1017.2 |
| 20260502100705 | 23 | 79 | 0.0 | 6.4 | 0.00 | 0.00 | 0.00 | 52 | 1017.3 |
| 20260502100205 | 23 | 332 | 0.0 | 8.0 | 0.00 | 0.00 | 0.00 | 51 | 1017.4 |
| 20260502091228 | 22 | 318 | 1.6 | 4.8 | 0.00 | 0.00 | 0.00 | 52 | 1017.6 |
| 20260502090723 | 22 | 324 | 0.0 | 4.8 | 0.00 | 0.00 | 0.00 | 52 | 1017.6 |
| 20260502090233 | 22 | 115 | 0.0 | 4.8 | 0.00 | 0.00 | 0.00 | 54 | 1017.8 |
| 20260502071205 | 17 | 132 | 3.2 | 6.4 | 0.00 | 0.00 | 0.00 | 60 | 1018.1 |
| 20260502070705 | 17 | 125 | 1.6 | 4.8 | 0.00 | 0.00 | 0.00 | 60 | 1018.1 |
| 20260502070205 | 16 | 127 | 1.6 | 8.0 | 0.00 | 0.00 | 0.00 | 60 | 1018.0 |
| 20260502065705 | 16 | 122 | 1.6 | 8.0 | 0.00 | 0.00 | 0.00 | 61 | 1018.1 |
| 20260502065206 | 16 | 122 | 3.2 | 8.0 | 0.00 | 0.00 | 0.00 | 59 | 1018.2 |
| 20260502064705 | 16 | 120 | 3.2 | 8.0 | 0.00 | 0.00 | 0.00 | 59 | 1018.1 |
| 20260502063705 | 15 | 127 | 1.6 | 4.8 | 0.00 | 0.00 | 0.00 | 63 | 1018.1 |
| 20260502063205 | 15 | 110 | 1.6 | 4.8 | 0.00 | 0.00 | 0.00 | 66 | 1018.1 |
| 20260502062705 | 14 | 118 | 1.6 | 4.8 | 0.00 | 0.00 | 0.00 | 67 | 1018.1 |
| 20260502062206 | 14 | 118 | 1.6 | 4.8 | 0.00 | 0.00 | 0.00 | 68 | 1018.1 |
| 20260502061712 | 13 | 119 | 1.6 | 4.8 | 0.00 | 0.00 | 0.00 | 70 | 1018.1 |
| 20260502061205 | 13 | 119 | 0.0 | 3.2 | 0.00 | 0.00 | 0.00 | 70 | 1018.1 |
| 20260502060705 | 13 | 119 | 0.0 | 4.8 | 0.00 | 0.00 | 0.00 | 70 | 1018.1 |
| 20260502055705 | 12 | 119 | 1.6 | 4.8 | 0.00 | 0.00 | 0.00 | 69 | 1018.1 |
| 20260502055205 | 12 | 119 | 0.0 | 4.8 | 0.00 | 0.00 | 0.00 | 68 | 1018.0 |
| 20260502054706 | 13 | 119 | 0.0 | 1.6 | 0.00 | 0.00 | 0.00 | 64 | 1018.1 |
| 20260502054205 | 13 | 125 | 0.0 | 4.8 | 0.00 | 0.00 | 0.00 | 62 | 1018.0 |
| 20260502053705 | 12 | 125 | 1.6 | 4.8 | 0.00 | 0.00 | 0.00 | 63 | 1018.0 |
| 20260502053205 | 12 | 125 | 1.6 | 6.4 | 0.00 | 0.00 | 0.00 | 65 | 1018.0 |
| 20260502052705 | 11 | 145 | 3.2 | 6.4 | 0.00 | 0.00 | 0.00 | 69 | 1017.9 |
| 20260502052205 | 11 | 126 | 3.2 | 6.4 | 0.00 | 0.00 | 0.00 | 69 | 1018.0 |
| 20260502051706 | 10 | 137 | 3.2 | 6.4 | 0.00 | 0.00 | 0.00 | 70 | 1018.0 |
| 20260502040705 | 9 | 120 | 3.2 | 4.8 | 0.00 | 0.00 | 0.00 | 71 | 1017.9 |
| 20260502040205 | 9 | 120 | 3.2 | 6.4 | 0.00 | 0.00 | 0.00 | 71 | 1017.9 |
| 20260502035705 | 9 | 120 | 3.2 | 6.4 | 0.00 | 0.00 | 0.00 | 71 | 1018.0 |
| 20260502035206 | 8 | 122 | 1.6 | 8.0 | 0.00 | 0.00 | 0.00 | 71 | 1018.1 |
| 20260502034705 | 8 | 126 | 3.2 | 8.0 | 0.00 | 0.00 | 0.00 | 71 | 1018.1 |
| 20260502034211 | 8 | 133 | 3.2 | 8.0 | 0.00 | 0.00 | 0.00 | 71 | 1018.1 |
| 20260502033712 | 8 | 130 | 3.2 | 6.4 | 0.00 | 0.00 | 0.00 | 71 | 1018.1 |
| 20260502033205 | 8 | 124 | 1.6 | 4.8 | 0.00 | 0.00 | 0.00 | 71 | 1018.2 |
| 20260502032705 | 8 | 124 | 1.6 | 4.8 | 0.00 | 0.00 | 0.00 | 71 | 1018.3 |
| 20260502032205 | 8 | 124 | 1.6 | 6.4 | 0.00 | 0.00 | 0.00 | 71 | 1018.3 |
| 20260502031705 | 8 | 125 | 1.6 | 6.4 | 0.00 | 0.00 | 0.00 | 71 | 1018.2 |
| 20260502031206 | 8 | 125 | 1.6 | 6.4 | 0.00 | 0.00 | 0.00 | 70 | 1018.3 |
| 20260502030727 | 8 | 123 | 1.6 | 6.4 | 0.00 | 0.00 | 0.00 | 70 | 1018.3 |
| 20260502030205 | 8 | 120 | 3.2 | 6.4 | 0.00 | 0.00 | 0.00 | 70 | 1018.3 |
| 20260502025705 | 8 | 120 | 3.2 | 4.8 | 0.00 | 0.00 | 0.00 | 69 | 1018.3 |
| 20260502025205 | 8 | 119 | 1.6 | 4.8 | 0.00 | 0.00 | 0.00 | 69 | 1018.4 |
| 20260502024705 | 9 | 119 | 3.2 | 4.8 | 0.00 | 0.00 | 0.00 | 69 | 1018.5 |
| 20260502024206 | 9 | 119 | 1.6 | 4.8 | 0.00 | 0.00 | 0.00 | 68 | 1018.6 |
| 20260502023705 | 9 | 119 | 1.6 | 4.8 | 0.00 | 0.00 | 0.00 | 67 | 1018.6 |
| 20260502023207 | 9 | 119 | 1.6 | 4.8 | 0.00 | 0.00 | 0.00 | 66 | 1018.6 |
| 20260502022705 | 10 | 125 | 0.0 | 4.8 | 0.00 | 0.00 | 0.00 | 65 | 1018.7 |
| 20260502021705 | 11 | 124 | 1.6 | 6.4 | 0.00 | 0.00 | 0.00 | 62 | 1018.7 |
| 20260502021205 | 11 | 124 | 3.2 | 6.4 | 0.00 | 0.00 | 0.00 | 62 | 1018.6 |
| 20260502020704 | 10 | 122 | 3.2 | 6.4 | 0.00 | 0.00 | 0.00 | 63 | 1018.6 |
| 20260502015705 | 10 | 121 | 3.2 | 6.4 | 0.00 | 0.00 | 0.00 | 64 | 1018.6 |
| 20260502014705 | 10 | 105 | 3.2 | 8.0 | 0.00 | 0.00 | 0.00 | 63 | 1018.7 |
| 20260502014205 | 11 | 117 | 3.2 | 6.4 | 0.00 | 0.00 | 0.00 | 61 | 1018.7 |
| 20260502013705 | 11 | 123 | 3.2 | 6.4 | 0.00 | 0.00 | 0.00 | 59 | 1018.7 |
| 20260502013228 | 11 | 120 | 3.2 | 6.4 | 0.00 | 0.00 | 0.00 | 59 | 1018.7 |
| 20260502012705 | 11 | 117 | 3.2 | 6.4 | 0.00 | 0.00 | 0.00 | 58 | 1018.8 |
| 20260502012205 | 11 | 122 | 3.2 | 6.4 | 0.00 | 0.00 | 0.00 | 59 | 1018.9 |
| 20260502011705 | 11 | 124 | 1.6 | 6.4 | 0.00 | 0.00 | 0.00 | 60 | 1018.9 |
| 20260502011205 | 11 | 124 | 1.6 | 6.4 | 0.00 | 0.00 | 0.00 | 61 | 1018.9 |
| 20260502010705 | 11 | 124 | 3.2 | 6.4 | 0.00 | 0.00 | 0.00 | 61 | 1018.9 |
| 20260502010205 | 11 | 131 | 3.2 | 6.4 | 0.00 | 0.00 | 0.00 | 61 | 1018.9 |
| 20260502005208 | 11 | 129 | 1.6 | 6.4 | 0.00 | 0.00 | 0.00 | 61 | 1019.0 |
| 20260502004205 | 10 | 126 | 1.6 | 6.4 | 0.00 | 0.00 | 0.00 | 63 | 1019.2 |
| 20260502003705 | 10 | 124 | 1.6 | 6.4 | 0.00 | 0.00 | 0.00 | 65 | 1019.2 |
| 20260502003206 | 10 | 124 | 3.2 | 6.4 | 0.00 | 0.00 | 0.00 | 66 | 1019.3 |
| 20260502002205 | 10 | 124 | 1.6 | 4.8 | 0.00 | 0.00 | 0.00 | 66 | 1019.4 |
| 20260502001205 | 10 | 124 | 1.6 | 3.2 | 0.00 | 0.00 | 0.00 | 67 | 1019.6 |
| 20260502000205 | 9 | 125 | 0.0 | 1.6 | 0.00 | 0.00 | 0.00 | 72 | 1019.7 |
| 20260501235705 | 9 | 126 | 0.0 | 1.6 | 0.00 | 0.00 | 0.00 | 73 | 1019.8 |
| 20260501235205 | 8 | 125 | 0.0 | 1.6 | 0.00 | 0.00 | 0.00 | 73 | 1019.8 |
| 20260501234705 | 8 | 126 | 0.0 | 1.6 | 0.00 | 0.00 | 0.00 | 73 | 1019.9 |
| 20260501234205 | 9 | 126 | 0.0 | 0.0 | 0.00 | 0.00 | 0.00 | 72 | 1020.0 |
| 20260501233705 | 9 | 125 | 0.0 | 0.0 | 0.00 | 0.00 | 0.00 | 72 | 1020.0 |
| 20260501233206 | 9 | 125 | 0.0 | 0.0 | 0.00 | 0.00 | 0.00 | 71 | 1020.0 |
| 20260501232705 | 9 | 125 | 0.0 | 0.0 | 0.00 | 0.00 | 0.00 | 71 | 1020.1 |
| 20260501232205 | 9 | 126 | 0.0 | 0.0 | 0.00 | 0.00 | 0.00 | 70 | 1020.1 |
| 20260501231705 | 9 | 126 | 0.0 | 0.0 | 0.00 | 0.00 | 0.00 | 68 | 1020.2 |
| 20260501231205 | 10 | 126 | 0.0 | 0.0 | 0.00 | 0.00 | 0.00 | 67 | 1020.2 |
| 20260501230705 | 10 | 126 | 0.0 | 0.0 | 0.00 | 0.00 | 0.00 | 67 | 1020.3 |
| 20260501225706 | 11 | 125 | 0.0 | 0.0 | 0.00 | 0.00 | 0.00 | 62 | 1020.2 |
| 20260501225205 | 11 | 126 | 0.0 | 0.0 | 0.00 | 0.00 | 0.00 | 60 | 1020.2 |
| 20260501224706 | 12 | 125 | 0.0 | 0.0 | 0.00 | 0.00 | 0.00 | 58 | 1020.1 |
| 20260501224205 | 12 | 126 | 0.0 | 1.6 | 0.00 | 0.00 | 0.00 | 57 | 1020.2 |
| 20260501223705 | 13 | 125 | 0.0 | 1.6 | 0.00 | 0.00 | 0.00 | 55 | 1020.2 |
| 20260501223207 | 13 | 125 | 0.0 | 1.6 | 0.00 | 0.00 | 0.00 | 53 | 1020.2 |
| 20260501222708 | 13 | 126 | 0.0 | 1.6 | 0.00 | 0.00 | 0.00 | 53 | 1020.2 |
| 20260501222205 | 13 | 125 | 0.0 | 1.6 | 0.00 | 0.00 | 0.00 | 53 | 1020.2 |
| 20260501221705 | 13 | 126 | 0.0 | 1.6 | 0.00 | 0.00 | 0.00 | 53 | 1020.2 |
| 20260501221206 | 13 | 126 | 0.0 | 1.6 | 0.00 | 0.00 | 0.00 | 52 | 1020.2 |
| 20260501220705 | 13 | 125 | 0.0 | 1.6 | 0.00 | 0.00 | 0.00 | 53 | 1020.2 |
| 20260501220206 | 13 | 126 | 0.0 | 1.6 | 0.00 | 0.00 | 0.00 | 53 | 1020.2 |
| 20260501215205 | 13 | 126 | 0.0 | 0.0 | 0.00 | 0.00 | 0.00 | 53 | 1020.2 |
| 20260501214205 | 13 | 126 | 0.0 | 1.6 | 0.00 | 0.00 | 0.00 | 54 | 1020.3 |
| 20260501212705 | 13 | 126 | 0.0 | 1.6 | 0.00 | 0.00 | 0.00 | 53 | 1020.3 |
| 20260501212205 | 13 | 126 | 0.0 | 1.6 | 0.00 | 0.00 | 0.00 | 53 | 1020.3 |
| 20260501211705 | 13 | 126 | 0.0 | 0.0 | 0.00 | 0.00 | 0.00 | 52 | 1020.4 |
| 20260501211205 | 13 | 125 | 0.0 | 0.0 | 0.00 | 0.00 | 0.00 | 52 | 1020.4 |
| 20260501210705 | 13 | 125 | 0.0 | 0.0 | 0.00 | 0.00 | 0.00 | 53 | 1020.4 |
| 20260501210205 | 14 | 126 | 0.0 | 0.0 | 0.00 | 0.00 | 0.00 | 52 | 1020.4 |
| 20260501205205 | 14 | 126 | 0.0 | 0.0 | 0.00 | 0.00 | 0.00 | 52 | 1020.4 |
| 20260501204705 | 15 | 126 | 0.0 | 0.0 | 0.00 | 0.00 | 0.00 | 52 | 1020.5 |
| 20260501203705 | 15 | 125 | 0.0 | 1.6 | 0.00 | 0.00 | 0.00 | 49 | 1020.5 |
| 20260501203205 | 15 | 125 | 0.0 | 1.6 | 0.00 | 0.00 | 0.00 | 48 | 1020.5 |
| 20260501202706 | 15 | 126 | 0.0 | 1.6 | 0.00 | 0.00 | 0.00 | 49 | 1020.6 |
| 20260501202205 | 16 | 125 | 0.0 | 1.6 | 0.00 | 0.00 | 0.00 | 49 | 1020.6 |
| 20260501201705 | 16 | 126 | 0.0 | 3.2 | 0.00 | 0.00 | 0.00 | 49 | 1020.5 |
| 20260501201205 | 16 | 126 | 0.0 | 3.2 | 0.00 | 0.00 | 0.00 | 49 | 1020.5 |
| 20260501200205 | 16 | 125 | 1.6 | 4.8 | 0.00 | 0.00 | 0.00 | 49 | 1020.5 |